Regional Weather Roundup
Issued by NWS

Home | Current Version | Previous Version | Graphics & Text | Print | Product List | Glossary On
Versions: 1 2 3 4 5 6 7 8 9 10 11 12 13 14 15 16 17 18 19 20 21 22 23 24 25 26 27 28 29 30 31 32 33 34 35 36 37 38 39 40 41 42 43 44 45 46 47 48 49 50
000
ASUS43 KTOP 260659
RWRKS

WEATHER ROUNDUP FOR KANSAS
NATIONAL WEATHER SERVICE GOODLAND KS
100 AM CST FRI DEC 26 2014

NOTE:  "FAIR" INDICATES FEW OR NO CLOUDS BELOW 12,000 FEET WITH NO
SIGNIFICANT WEATHER AND/OR OBSTRUCTIONS TO VISIBILITY.

KSZ001>006-013>018-027>032-041>047-260800-
NORTHWEST KANSAS

CITY           SKY/WX    TMP DP  RH WIND       PRES   REMARKS
GOODLAND       CLOUDY    27  23  85 N15       29.86R WCI  15
HAYS           MOCLDY    30  19  64 N18       29.79R WCI  18
HILL CITY      MOCLDY    31  25  78 N22G28    29.81S WCI  18
RUSSELL        PTCLDY    30  27  88 N17       29.77R WCI  18
$$

KSZ061>065-074>080-084>089-260800-
SOUTHWEST KANSAS

CITY           SKY/WX    TMP DP  RH WIND       PRES   REMARKS
DODGE CITY     CLEAR     28  23  81 N14       29.77R WCI  17
ELKHART          N/A     29  20  69 N12         N/A  WCI  19
GARDEN CITY    FAIR      27  24  89 N16       29.78R WCI  15
GREAT BEND     CLEAR     30  23  74 NW15      29.77S WCI  19
LIBERAL        PTCLDY    30  19  64 N14       29.76S WCI  20
$$

KSZ066>073-081>083-090>101-260800-
SOUTHEAST KANSAS

CITY           SKY/WX    TMP DP  RH WIND       PRES   REMARKS
CHANUTE        PTCLDY    47  32  56 S16       29.83S
COFFEYVILLE    PTCLDY    48  31  51 S16       29.85S
HUTCHINSON     CLEAR     42  28  57 SW8       29.76R
MEDICINE LODGE   N/A     41  28  60 NW3       29.75R
NEWTON         CLEAR     45  27  49 S17G24    29.77R
PARSONS        PTCLDY    47  31  53 S9G20     29.85S
WICHITA INTL   MOCLDY    45  30  55 S12       29.75S
WICHITA JABRA  PTCLDY    47  29  49 S17G28    29.75R
WINFIELD       MOCLDY    50  30  46 S21       29.79S
$$

KSZ007>012-019>026-033>040-048>060-102>105-260800-
NORTHEAST KANSAS

CITY           SKY/WX    TMP DP  RH WIND       PRES   REMARKS
CONCORDIA      PTCLDY    31  29  92 NW12      29.74R WCI  22
EMPORIA        PTCLDY    46  30  53 S18       29.76S
LAWRENCE       PTCLDY    47  30  51 S6        29.80R
MANHATTAN      CLEAR     40  29  64 CALM      29.74S
OLATHE IND     MOCLDY    47  31  53 S16       29.80S
OLATHE EXE     MOCLDY    47  31  53 S10G21    29.80S
SALINA         PTCLDY    42  30  62 S12       29.74R
TOPEKA BILLARD CLEAR     47  31  53 VRB3      29.79R
TOPEKA FORBES  CLEAR     47  30  51 S12       29.77R
$$


USA.gov is the U.S. government's official web portal to all federal, state and local government web resources and services.